Weather in Ogarkovo

Russia / Yaroslavl Oblast     58°14′14″N   38°51′54″E
temp.,
°C
wind,
m/s
gust,
m/s
humid.,
%
clouds,
%
prec.,
mm/h
press.,
hPa
HPBL,
m
8 march, mon
mon800:00−13w33898 0.0 99120
03:00−14w239730 0.0 99220
06:00−15nw339884 0.0 99420
09:00−14nw349572 0.0 99684
12:00−9n678899 0.1 1000657
15:00−9nnw6888100 0.3 1003747
18:00−10nnw699199 0.1 1006345
21:00−12n599297 0.3 1009309
9 march, tue
tue900:00−18nnw459774 0.0 101165
03:00−20n449868 0.0 101354
06:00−23n349781 0.0 101548
09:00−23n459667 0.0 1017158
12:00−21nnw459629 0.0 1018263
15:00−19nnw579558 0.0 1019335
18:00−20nnw579793 0.0 1020125
21:00−23n449788 0.0 102353
10 march, wed
wed1000:00−25nne34963 0.0 102530
03:00−26n34962 0.0 102625
06:00−27n33950 0.0 102720
09:00−25nnw23930 0.0 102874
12:00−21nw34900 0.0 1028236
15:00−19wnw34880 0.0 1028230
18:00−20nw22918 0.0 102720
21:00−20wnw2310027 0.0 102820
11 march, thu
thu1100:00−20nw2310087 0.0 102920
03:00−20wnw2310092 0.1 103020
06:00−20wnw23100100 0.0 102920
09:00−19wnw2398100 0.1 103074
12:00−16w239379 0.0 1029190
15:00−13sw119273 0.0 1029128
18:00−14ssw239563 0.0 102823
21:00−16s349239 0.0 102830
12 march, fri
fri1200:00−18s45930 0.0 102767
03:00−19s47930 0.0 102692
06:00−20s59870 0.0 1025128
09:00−18sse510830 0.0 1023220
12:00−12sse611902 0.0 1021414
15:00−9se8138612 0.0 1018489
18:00−10se8168438 0.0 1015471
21:00−9sse8158969 0.1 1014669